| time (UTC) | temp F | wind direction | speed MPH | gust MPH | rain 1hr in | rain 24hr in | rain mn in | humidity % | barometer mb |
| 20260901070023 | 62 | 343 | 13.0 | 22.0 | 0.00 | 0.00 | 0.00 | 59 | 1015.4 |
| 20260901065510 | 62 | 325 | 13.0 | 22.0 | 0.00 | 0.00 | 0.00 | 59 | 1015.3 |
| 20260901065004 | 62 | 333 | 12.0 | 22.0 | 0.00 | 0.00 | 0.00 | 58 | 1015.2 |
| 20260901064526 | 62 | 316 | 13.0 | 28.0 | 0.00 | 0.00 | 0.00 | 57 | 1015.1 |
| 20260901064007 | 62 | 344 | 15.0 | 28.0 | 0.00 | 0.00 | 0.00 | 57 | 1015.0 |
| 20260901063514 | 62 | 337 | 14.0 | 24.0 | 0.00 | 0.00 | 0.00 | 57 | 1015.0 |
| 20260901063015 | 62 | 352 | 13.0 | 29.0 | 0.00 | 0.00 | 0.00 | 57 | 1015.2 |
| 20260901062504 | 62 | 7 | 17.0 | 29.0 | 0.00 | 0.00 | 0.00 | 56 | 1015.2 |
| 20260901062011 | 63 | 345 | 15.0 | 27.0 | 0.00 | 0.00 | 0.00 | 56 | 1015.1 |
| 20260901061509 | 63 | 4 | 13.0 | 27.0 | 0.00 | 0.00 | 0.00 | 56 | 1014.8 |
| 20260901061008 | 63 | 339 | 13.0 | 27.0 | 0.00 | 0.00 | 0.00 | 57 | 1014.8 |
| 20260901060509 | 62 | 10 | 12.0 | 23.0 | 0.00 | 0.00 | 0.00 | 58 | 1014.8 |
| 20260901060012 | 62 | 24 | 10.0 | 26.0 | 0.00 | 0.00 | 0.00 | 59 | 1015.0 |
| 20260901055511 | 63 | 340 | 16.0 | 30.0 | 0.00 | 0.00 | 0.00 | 57 | 1014.9 |
| 20260901055014 | 63 | 339 | 15.0 | 31.0 | 0.00 | 0.00 | 0.00 | 57 | 1015.0 |
| 20260901054513 | 63 | 346 | 18.0 | 31.0 | 0.00 | 0.00 | 0.00 | 56 | 1015.1 |
| 20260901054013 | 63 | 23 | 16.0 | 28.0 | 0.00 | 0.00 | 0.00 | 57 | 1015.1 |
| 20260901053510 | 63 | 340 | 16.0 | 31.0 | 0.00 | 0.00 | 0.00 | 56 | 1015.1 |
| 20260901053037 | 64 | 1 | 18.0 | 32.0 | 0.00 | 0.00 | 0.00 | 56 | 1015.2 |
| 20260901052502 | 65 | 349 | 17.0 | 32.0 | 0.00 | 0.00 | 0.00 | 57 | 1015.2 |
| 20260901052007 | 64 | 341 | 16.0 | 28.0 | 0.00 | 0.00 | 0.00 | 57 | 1015.2 |
| 20260901051504 | 64 | 341 | 16.0 | 29.0 | 0.00 | 0.00 | 0.00 | 58 | 1015.2 |
| 20260901051003 | 64 | 328 | 15.0 | 31.0 | 0.00 | 0.00 | 0.00 | 55 | 1015.2 |
| 20260901050507 | 64 | 352 | 21.0 | 32.0 | 0.00 | 0.00 | 0.00 | 54 | 1015.3 |
| 20260901050004 | 64 | 333 | 20.0 | 36.0 | 0.00 | 0.00 | 0.00 | 55 | 1015.6 |
| 20260901045508 | 64 | 345 | 22.0 | 37.0 | 0.00 | 0.00 | 0.00 | 54 | 1015.4 |
| 20260901045004 | 64 | 348 | 21.0 | 37.0 | 0.00 | 0.00 | 0.00 | 55 | 1015.3 |
| 20260901044516 | 64 | 1 | 23.0 | 34.0 | 0.00 | 0.00 | 0.00 | 54 | 1015.2 |
| 20260901044008 | 65 | 330 | 21.0 | 33.0 | 0.00 | 0.00 | 0.00 | 56 | 1015.3 |
| 20260901043506 | 65 | 356 | 23.0 | 31.0 | 0.00 | 0.00 | 0.00 | 56 | 1015.2 |
| 20260901043017 | 65 | 352 | 19.0 | 33.0 | 0.00 | 0.00 | 0.00 | 57 | 1015.3 |
| 20260901042508 | 65 | 358 | 20.0 | 33.0 | 0.00 | 0.00 | 0.00 | 57 | 1015.2 |
| 20260901042004 | 65 | 349 | 17.0 | 33.0 | 0.00 | 0.00 | 0.00 | 59 | 1015.1 |
| 20260901041504 | 64 | 320 | 21.0 | 35.0 | 0.00 | 0.00 | 0.00 | 57 | 1015.1 |
| 20260901041003 | 64 | 337 | 23.0 | 37.0 | 0.00 | 0.00 | 0.00 | 57 | 1015.1 |
| 20260901040503 | 64 | 358 | 24.0 | 37.0 | 0.00 | 0.00 | 0.00 | 58 | 1015.4 |
| 20260901040006 | 64 | 330 | 20.0 | 38.0 | 0.00 | 0.00 | 0.00 | 58 | 1015.2 |
| 20260901035501 | 64 | 14 | 21.0 | 38.0 | 0.00 | 0.00 | 0.00 | 58 | 1015.1 |
| 20260901035008 | 64 | 7 | 23.0 | 38.0 | 0.00 | 0.00 | 0.00 | 58 | 1015.1 |
| 20260901034514 | 64 | 324 | 22.0 | 37.0 | 0.00 | 0.00 | 0.00 | 58 | 1015.3 |
| 20260901034010 | 64 | 339 | 24.0 | 37.0 | 0.00 | 0.00 | 0.00 | 57 | 1015.5 |
| 20260901033510 | 64 | 331 | 20.0 | 36.0 | 0.00 | 0.00 | 0.00 | 58 | 1015.5 |
| 20260901033008 | 64 | 341 | 22.0 | 35.0 | 0.00 | 0.00 | 0.00 | 58 | 1015.8 |
| 20260901032512 | 64 | 318 | 21.0 | 33.0 | 0.00 | 0.00 | 0.00 | 58 | 1015.9 |
| 20260901032009 | 64 | 332 | 17.0 | 45.0 | 0.00 | 0.00 | 0.00 | 60 | 1016.0 |
| 20260901031507 | 63 | 351 | 20.0 | 45.0 | 0.00 | 0.00 | 0.00 | 60 | 1016.2 |
| 20260901031011 | 63 | 318 | 27.0 | 44.0 | 0.00 | 0.00 | 0.00 | 59 | 1016.2 |
| 20260901030503 | 63 | 2 | 17.0 | 42.0 | 0.00 | 0.00 | 0.00 | 61 | 1016.7 |
| 20260901030005 | 63 | 341 | 20.0 | 42.0 | 0.00 | 0.00 | 0.00 | 59 | 1016.8 |
| 20260901025505 | 63 | 318 | 24.0 | 45.0 | 0.00 | 0.00 | 0.00 | 60 | 1016.7 |
| 20260901025010 | 62 | 20 | 20.0 | 45.0 | 0.00 | 0.00 | 0.00 | 61 | 1017.1 |
| 20260901024513 | 63 | 345 | 21.0 | 37.0 | 0.00 | 0.00 | 0.00 | 59 | 1017.2 |
| 20260901024011 | 63 | 348 | 23.0 | 37.0 | 0.00 | 0.00 | 0.00 | 60 | 1017.1 |
| 20260901023510 | 63 | 3 | 20.0 | 38.0 | 0.00 | 0.00 | 0.00 | 61 | 1017.3 |
| 20260901023024 | 62 | 341 | 18.0 | 38.0 | 0.00 | 0.00 | 0.00 | 62 | 1017.3 |
| 20260901022506 | 62 | 10 | 21.0 | 37.0 | 0.00 | 0.00 | 0.00 | 62 | 1017.3 |
| 20260901022011 | 62 | 4 | 18.0 | 31.0 | 0.00 | 0.00 | 0.00 | 63 | 1017.2 |
| 20260901021523 | 62 | 23 | 18.0 | 32.0 | 0.00 | 0.00 | 0.00 | 61 | 1017.3 |
| 20260901021006 | 62 | 345 | 19.0 | 34.0 | 0.00 | 0.00 | 0.00 | 62 | 1017.4 |
| 20260901020517 | 62 | 15 | 20.0 | 34.0 | 0.00 | 0.00 | 0.00 | 60 | 1017.6 |
| 20260901020016 | 61 | 21 | 17.0 | 30.0 | 0.00 | 0.00 | 0.00 | 63 | 1018.0 |
| 20260901015517 | 61 | 6 | 15.0 | 30.0 | 0.00 | 0.00 | 0.00 | 64 | 1018.2 |
| 20260901015014 | 61 | 12 | 18.0 | 31.0 | 0.00 | 0.00 | 0.00 | 63 | 1018.3 |
| 20260901014508 | 60 | 358 | 17.0 | 34.0 | 0.00 | 0.00 | 0.00 | 64 | 1018.6 |
| 20260901014008 | 60 | 359 | 18.0 | 35.0 | 0.00 | 0.00 | 0.00 | 63 | 1018.4 |
| 20260901013505 | 60 | 11 | 24.0 | 35.0 | 0.00 | 0.00 | 0.00 | 64 | 1018.5 |
| 20260901013007 | 60 | 11 | 16.0 | 34.0 | 0.00 | 0.00 | 0.00 | 66 | 1018.6 |
| 20260901012510 | 60 | 358 | 18.0 | 34.0 | 0.00 | 0.00 | 0.00 | 65 | 1018.6 |
| 20260901012010 | 59 | 353 | 21.0 | 34.0 | 0.00 | 0.00 | 0.00 | 65 | 1018.9 |
| 20260901011523 | 59 | 349 | 13.0 | 28.0 | 0.00 | 0.00 | 0.00 | 68 | 1019.1 |
| 20260901011015 | 59 | 354 | 16.0 | 31.0 | 0.00 | 0.00 | 0.00 | 67 | 1019.1 |
| 20260901010510 | 59 | 3 | 19.0 | 31.0 | 0.00 | 0.00 | 0.00 | 68 | 1019.1 |
| 20260901010025 | 59 | 350 | 16.0 | 28.0 | 0.00 | 0.00 | 0.00 | 69 | 1019.3 |
| 20260901005512 | 58 | 22 | 15.0 | 26.0 | 0.00 | 0.00 | 0.00 | 68 | 1019.3 |
| 20260901005018 | 58 | 25 | 14.0 | 36.0 | 0.00 | 0.00 | 0.00 | 70 | 1019.5 |
| 20260901004532 | 58 | 359 | 18.0 | 36.0 | 0.00 | 0.00 | 0.00 | 69 | 1019.6 |
| 20260901004011 | 58 | 333 | 15.0 | 30.0 | 0.00 | 0.00 | 0.00 | 71 | 1019.8 |
| 20260901003516 | 58 | 9 | 15.0 | 30.0 | 0.00 | 0.00 | 0.00 | 72 | 1019.6 |
| 20260901003024 | 57 | 332 | 15.0 | 26.0 | 0.00 | 0.00 | 0.00 | 73 | 1019.7 |
| 20260901002506 | 57 | 10 | 13.0 | 28.0 | 0.00 | 0.00 | 0.00 | 74 | 1020.0 |
| 20260901002012 | 56 | 13 | 17.0 | 28.0 | 0.00 | 0.00 | 0.00 | 73 | 1020.3 |
| 20260901001517 | 56 | 359 | 15.0 | 28.0 | 0.00 | 0.00 | 0.00 | 74 | 1020.3 |
| 20260901001014 | 56 | 16 | 12.0 | 26.0 | 0.00 | 0.00 | 0.00 | 75 | 1020.5 |
| 20260901000515 | 56 | 16 | 13.0 | 26.0 | 0.00 | 0.00 | 0.00 | 75 | 1020.6 |
| 20260901000014 | 56 | 7 | 13.0 | 24.0 | 0.00 | 0.00 | 0.00 | 75 | 1020.7 |
| 20260831235515 | 56 | 15 | 12.0 | 24.0 | 0.00 | 0.00 | 0.00 | 76 | 1020.8 |
| 20260831235013 | 56 | 20 | 8.0 | 25.0 | 0.00 | 0.00 | 0.00 | 77 | 1020.9 |
| 20260831234514 | 55 | 13 | 9.0 | 29.0 | 0.00 | 0.00 | 0.00 | 77 | 1021.1 |
| 20260831234017 | 55 | 353 | 11.0 | 31.0 | 0.00 | 0.00 | 0.00 | 78 | 1021.3 |
| 20260831233512 | 54 | 7 | 13.0 | 31.0 | 0.00 | 0.00 | 0.00 | 78 | 1021.4 |
| 20260831233030 | 54 | 18 | 17.0 | 30.0 | 0.00 | 0.00 | 0.00 | 78 | 1021.5 |
| 20260831232515 | 54 | 28 | 12.0 | 26.0 | 0.00 | 0.00 | 0.00 | 79 | 1021.5 |
| 20260831232015 | 54 | 4 | 16.0 | 31.0 | 0.00 | 0.00 | 0.00 | 79 | 1021.6 |
| 20260831231533 | 53 | 322 | 17.0 | 31.0 | 0.00 | 0.00 | 0.00 | 79 | 1021.7 |
| 20260831231010 | 53 | 8 | 13.0 | 25.0 | 0.00 | 0.00 | 0.00 | 80 | 1021.9 |
| 20260831230511 | 53 | 350 | 15.0 | 27.0 | 0.00 | 0.00 | 0.00 | 80 | 1021.8 |
| 20260831230023 | 53 | 359 | 18.0 | 27.0 | 0.00 | 0.00 | 0.00 | 80 | 1021.9 |
| 20260831225512 | 53 | 332 | 12.0 | 29.0 | 0.00 | 0.00 | 0.00 | 81 | 1021.9 |
| 20260831225018 | 52 | 343 | 17.0 | 29.0 | 0.00 | 0.00 | 0.00 | 81 | 1021.8 |
| 20260831224528 | 52 | 355 | 13.0 | 29.0 | 0.00 | 0.00 | 0.00 | 82 | 1021.7 |
| 20260831224011 | 52 | 353 | 18.0 | 29.0 | 0.00 | 0.00 | 0.00 | 82 | 1021.8 |
| 20260831223514 | 52 | 8 | 15.0 | 31.0 | 0.00 | 0.00 | 0.00 | 82 | 1021.8 |
| 20260831223027 | 52 | 2 | 13.0 | 31.0 | 0.00 | 0.00 | 0.00 | 82 | 1022.0 |
| 20260831222516 | 51 | 359 | 18.0 | 31.0 | 0.00 | 0.00 | 0.00 | 82 | 1022.0 |
| 20260831222015 | 51 | 339 | 17.0 | 26.0 | 0.00 | 0.00 | 0.00 | 83 | 1021.9 |
| 20260831221523 | 51 | 14 | 17.0 | 27.0 | 0.00 | 0.00 | 0.00 | 83 | 1022.0 |
| 20260831221019 | 51 | 2 | 17.0 | 27.0 | 0.00 | 0.00 | 0.00 | 84 | 1021.9 |
| 20260831220514 | 51 | 8 | 14.0 | 27.0 | 0.00 | 0.00 | 0.00 | 84 | 1022.0 |
| 20260831220017 | 51 | 320 | 16.0 | 26.0 | 0.00 | 0.00 | 0.00 | 84 | 1022.2 |
| 20260831215518 | 51 | 5 | 12.0 | 26.0 | 0.00 | 0.00 | 0.00 | 85 | 1022.2 |
| 20260831215017 | 51 | 352 | 14.0 | 25.0 | 0.00 | 0.00 | 0.00 | 85 | 1022.2 |
| 20260831214524 | 50 | 341 | 16.0 | 25.0 | 0.00 | 0.00 | 0.00 | 85 | 1022.0 |
| 20260831214011 | 50 | 354 | 14.0 | 24.0 | 0.00 | 0.00 | 0.00 | 85 | 1022.0 |
| 20260831213511 | 50 | 355 | 12.0 | 25.0 | 0.00 | 0.00 | 0.00 | 85 | 1022.1 |
| 20260831213028 | 50 | 336 | 15.0 | 25.0 | 0.00 | 0.00 | 0.00 | 86 | 1022.0 |
| 20260831212517 | 50 | 1 | 14.0 | 28.0 | 0.00 | 0.00 | 0.00 | 86 | 1021.9 |
| 20260831212015 | 50 | 3 | 18.0 | 28.0 | 0.00 | 0.00 | 0.00 | 86 | 1021.9 |
| 20260831211531 | 50 | 350 | 15.0 | 34.0 | 0.00 | 0.00 | 0.00 | 86 | 1021.7 |
| 20260831211015 | 50 | 350 | 17.0 | 34.0 | 0.00 | 0.00 | 0.00 | 86 | 1021.7 |
| 20260831210518 | 50 | 4 | 20.0 | 32.0 | 0.00 | 0.00 | 0.00 | 86 | 1021.7 |
| 20260831210030 | 50 | 26 | 15.0 | 29.0 | 0.00 | 0.00 | 0.00 | 86 | 1021.6 |
| 20260831205514 | 50 | 17 | 18.0 | 29.0 | 0.00 | 0.00 | 0.00 | 86 | 1021.7 |
| 20260831205019 | 50 | 36 | 16.0 | 30.0 | 0.00 | 0.00 | 0.00 | 86 | 1021.7 |
| 20260831204530 | 50 | 330 | 18.0 | 30.0 | 0.00 | 0.00 | 0.00 | 86 | 1021.7 |
| 20260831204018 | 51 | 344 | 15.0 | 24.0 | 0.00 | 0.00 | 0.00 | 86 | 1021.7 |
| 20260831203519 | 51 | 343 | 15.0 | 31.0 | 0.00 | 0.00 | 0.00 | 86 | 1021.7 |
| 20260831203025 | 51 | 351 | 19.0 | 31.0 | 0.00 | 0.00 | 0.00 | 86 | 1021.9 |
| 20260831202511 | 51 | 315 | 15.0 | 28.0 | 0.00 | 0.00 | 0.00 | 86 | 1021.9 |
| 20260831202003 | 51 | 16 | 17.0 | 28.0 | 0.00 | 0.00 | 0.00 | 86 | 1022.0 |
| 20260831201507 | 51 | 4 | 12.0 | 27.0 | 0.00 | 0.00 | 0.00 | 85 | 1021.8 |
| 20260831201003 | 51 | 327 | 15.0 | 27.0 | 0.00 | 0.00 | 0.00 | 85 | 1021.7 |
| 20260831200503 | 51 | 16 | 15.0 | 28.0 | 0.00 | 0.00 | 0.00 | 85 | 1021.5 |
| 20260831200015 | 51 | 353 | 15.0 | 28.0 | 0.00 | 0.00 | 0.00 | 85 | 1021.7 |
| 20260831195508 | 51 | 351 | 12.0 | 25.0 | 0.00 | 0.00 | 0.00 | 85 | 1021.8 |
| 20260831195010 | 51 | 8 | 12.0 | 26.0 | 0.00 | 0.00 | 0.00 | 85 | 1021.9 |
| 20260831194511 | 51 | 341 | 14.0 | 28.0 | 0.00 | 0.00 | 0.00 | 85 | 1021.8 |
| 20260831194004 | 51 | 345 | 14.0 | 28.0 | 0.00 | 0.00 | 0.00 | 85 | 1021.7 |
| 20260831193510 | 51 | 349 | 13.0 | 21.0 | 0.00 | 0.00 | 0.00 | 84 | 1021.7 |
| 20260831193024 | 51 | 340 | 12.0 | 24.0 | 0.00 | 0.00 | 0.00 | 84 | 1021.7 |
| 20260831192512 | 51 | 349 | 16.0 | 25.0 | 0.00 | 0.00 | 0.00 | 84 | 1021.7 |
| 20260831192020 | 51 | 4 | 15.0 | 25.0 | 0.00 | 0.00 | 0.00 | 84 | 1021.6 |
| 20260831191510 | 51 | 326 | 14.0 | 25.0 | 0.00 | 0.00 | 0.00 | 84 | 1021.5 |
| 20260831191016 | 51 | 328 | 12.0 | 20.0 | 0.00 | 0.00 | 0.00 | 85 | 1021.6 |
| 20260831190509 | 51 | 8 | 11.0 | 18.0 | 0.00 | 0.00 | 0.00 | 85 | 1021.7 |
| 20260831190008 | 51 | 357 | 11.0 | 19.0 | 0.00 | 0.00 | 0.00 | 85 | 1021.8 |
| 20260831185506 | 51 | 14 | 10.0 | 22.0 | 0.00 | 0.00 | 0.00 | 86 | 1022.0 |
| 20260831185006 | 51 | 337 | 11.0 | 23.0 | 0.00 | 0.00 | 0.00 | 85 | 1022.0 |
| 20260831184510 | 51 | 353 | 6.0 | 23.0 | 0.00 | 0.00 | 0.00 | 86 | 1021.9 |
| 20260831184008 | 51 | 354 | 9.0 | 19.0 | 0.00 | 0.00 | 0.00 | 86 | 1022.1 |
| 20260831183511 | 51 | 358 | 7.0 | 16.0 | 0.00 | 0.00 | 0.00 | 86 | 1022.1 |
| 20260831183018 | 51 | 346 | 6.0 | 16.0 | 0.00 | 0.00 | 0.00 | 86 | 1022.3 |
| 20260831182510 | 51 | 49 | 7.0 | 17.0 | 0.00 | 0.00 | 0.00 | 86 | 1022.4 |
| 20260831182006 | 51 | 335 | 7.0 | 17.0 | 0.00 | 0.00 | 0.00 | 86 | 1022.6 |
| 20260831181526 | 51 | 4 | 6.0 | 11.0 | 0.00 | 0.00 | 0.00 | 86 | 1022.6 |
| 20260831181010 | 50 | 45 | 3.0 | 9.0 | 0.00 | 0.00 | 0.00 | 85 | 1022.7 |
| 20260831180516 | 50 | 11 | 3.0 | 10.0 | 0.00 | 0.00 | 0.00 | 86 | 1022.6 |
| 20260831180038 | 51 | 338 | 6.0 | 10.0 | 0.00 | 0.00 | 0.00 | 85 | 1022.7 |
| 20260831175508 | 51 | 334 | 4.0 | 12.0 | 0.00 | 0.00 | 0.00 | 85 | 1022.7 |
| 20260831175014 | 51 | 336 | 6.0 | 11.0 | 0.00 | 0.00 | 0.00 | 85 | 1022.7 |
| 20260831174523 | 51 | 342 | 6.0 | 10.0 | 0.00 | 0.00 | 0.00 | 85 | 1022.5 |
| 20260831174022 | 51 | 342 | 7.0 | 13.0 | 0.00 | 0.00 | 0.00 | 85 | 1022.6 |
| 20260831173506 | 52 | 355 | 7.0 | 13.0 | 0.00 | 0.00 | 0.00 | 85 | 1022.6 |
| 20260831173015 | 52 | 354 | 6.0 | 13.0 | 0.00 | 0.00 | 0.00 | 85 | 1022.7 |
| 20260831172510 | 52 | 348 | 7.0 | 14.0 | 0.00 | 0.00 | 0.00 | 85 | 1022.8 |
| 20260831172014 | 52 | 7 | 6.0 | 15.0 | 0.00 | 0.00 | 0.00 | 85 | 1022.8 |
| 20260831171514 | 52 | 36 | 7.0 | 16.0 | 0.00 | 0.00 | 0.00 | 85 | 1022.9 |
| 20260831171010 | 52 | 337 | 8.0 | 16.0 | 0.00 | 0.00 | 0.00 | 84 | 1022.9 |
| 20260831170515 | 52 | 345 | 5.0 | 12.0 | 0.00 | 0.00 | 0.00 | 84 | 1023.0 |
| 20260831170028 | 52 | 31 | 4.0 | 17.0 | 0.00 | 0.00 | 0.00 | 84 | 1023.0 |
| 20260831165516 | 52 | 60 | 5.0 | 17.0 | 0.00 | 0.00 | 0.00 | 84 | 1023.2 |
| 20260831165010 | 52 | 25 | 5.0 | 12.0 | 0.00 | 0.00 | 0.00 | 84 | 1023.3 |
| 20260831164545 | 52 | 14 | 5.0 | 11.0 | 0.00 | 0.00 | 0.00 | 84 | 1023.4 |
| 20260831164013 | 52 | 359 | 5.0 | 11.0 | 0.00 | 0.00 | 0.00 | 84 | 1023.5 |
| 20260831163508 | 53 | 331 | 3.0 | 10.0 | 0.00 | 0.00 | 0.00 | 84 | 1023.6 |
| 20260831163026 | 52 | 120 | 3.0 | 10.0 | 0.00 | 0.00 | 0.00 | 84 | 1023.6 |
| 20260831162515 | 52 | 39 | 3.0 | 10.0 | 0.00 | 0.00 | 0.00 | 84 | 1023.6 |
| 20260831162006 | 53 | 58 | 2.0 | 9.0 | 0.00 | 0.00 | 0.00 | 84 | 1023.8 |
| 20260831161517 | 53 | 71 | 2.0 | 9.0 | 0.00 | 0.00 | 0.00 | 84 | 1023.9 |
| 20260831161010 | 53 | 2 | 2.0 | 9.0 | 0.00 | 0.00 | 0.00 | 84 | 1023.9 |
| 20260831160511 | 52 | 27 | 1.0 | 7.0 | 0.00 | 0.00 | 0.00 | 84 | 1024.0 |
| 20260831160024 | 52 | 27 | 1.0 | 7.0 | 0.00 | 0.00 | 0.00 | 84 | 1024.2 |
| 20260831155511 | 52 | 10 | 1.0 | 6.0 | 0.00 | 0.00 | 0.00 | 83 | 1024.3 |
| 20260831155016 | 53 | 168 | 0.0 | 6.0 | 0.00 | 0.00 | 0.00 | 83 | 1024.4 |
| 20260831154551 | 53 | 87 | 2.0 | 5.0 | 0.00 | 0.00 | 0.00 | 83 | 1024.6 |
| 20260831154020 | 53 | 33 | 2.0 | 7.0 | 0.00 | 0.00 | 0.00 | 83 | 1024.6 |
| 20260831153517 | 53 | 38 | 3.0 | 7.0 | 0.00 | 0.00 | 0.00 | 83 | 1024.6 |
| 20260831153018 | 53 | 69 | 2.0 | 13.0 | 0.00 | 0.00 | 0.00 | 83 | 1024.5 |
| 20260831152516 | 53 | 47 | 2.0 | 13.0 | 0.00 | 0.00 | 0.00 | 83 | 1024.5 |
| 20260831152012 | 53 | 16 | 3.0 | 11.0 | 0.00 | 0.00 | 0.00 | 83 | 1024.5 |
| 20260831151534 | 53 | 47 | 4.0 | 11.0 | 0.00 | 0.00 | 0.00 | 83 | 1024.5 |
| 20260831151018 | 53 | 351 | 3.0 | 10.0 | 0.00 | 0.00 | 0.00 | 83 | 1024.6 |
| 20260831150515 | 53 | 358 | 4.0 | 12.0 | 0.00 | 0.00 | 0.00 | 83 | 1024.6 |
| 20260831150018 | 53 | 77 | 5.0 | 12.0 | 0.00 | 0.00 | 0.00 | 83 | 1024.7 |
| 20260831145516 | 53 | 22 | 5.0 | 11.0 | 0.00 | 0.00 | 0.00 | 83 | 1024.8 |
| 20260831145013 | 53 | 17 | 4.0 | 12.0 | 0.00 | 0.00 | 0.00 | 83 | 1024.9 |
| 20260831144527 | 53 | 326 | 5.0 | 12.0 | 0.00 | 0.00 | 0.00 | 83 | 1025.0 |
| 20260831144016 | 53 | 36 | 4.0 | 11.0 | 0.00 | 0.00 | 0.00 | 82 | 1025.0 |
| 20260831143515 | 53 | 39 | 4.0 | 12.0 | 0.00 | 0.00 | 0.00 | 82 | 1025.1 |
| 20260831143033 | 53 | 39 | 3.0 | 13.0 | 0.00 | 0.00 | 0.00 | 82 | 1025.2 |
| 20260831142504 | 54 | 8 | 4.0 | 13.0 | 0.00 | 0.00 | 0.00 | 82 | 1025.3 |
| 20260831142003 | 54 | 360 | 5.0 | 11.0 | 0.00 | 0.00 | 0.00 | 82 | 1025.4 |
| 20260831141509 | 54 | 35 | 6.0 | 13.0 | 0.00 | 0.00 | 0.00 | 82 | 1025.4 |
| 20260831141004 | 54 | 330 | 4.0 | 13.0 | 0.00 | 0.00 | 0.00 | 82 | 1025.5 |
| 20260831140505 | 53 | 62 | 4.0 | 11.0 | 0.00 | 0.00 | 0.00 | 82 | 1025.6 |
| 20260831140007 | 53 | 346 | 4.0 | 11.0 | 0.00 | 0.00 | 0.00 | 82 | 1025.6 |
| 20260831135503 | 53 | 15 | 4.0 | 10.0 | 0.00 | 0.00 | 0.00 | 81 | 1025.7 |
| 20260831135003 | 53 | 29 | 4.0 | 10.0 | 0.00 | 0.00 | 0.00 | 81 | 1025.8 |
| 20260831134504 | 53 | 344 | 2.0 | 12.0 | 0.00 | 0.00 | 0.00 | 81 | 1026.0 |
| 20260831134000 | 53 | 45 | 3.0 | 12.0 | 0.00 | 0.00 | 0.00 | 81 | 1026.1 |
| 20260831133507 | 53 | 312 | 4.0 | 11.0 | 0.00 | 0.00 | 0.00 | 80 | 1026.2 |
| 20260831133005 | 53 | 15 | 3.0 | 11.0 | 0.00 | 0.00 | 0.00 | 80 | 1026.2 |
| 20260831132503 | 53 | 17 | 2.0 | 9.0 | 0.00 | 0.00 | 0.00 | 80 | 1026.3 |
| 20260831132004 | 53 | 55 | 3.0 | 9.0 | 0.00 | 0.00 | 0.00 | 79 | 1026.4 |
| 20260831131504 | 53 | 8 | 3.0 | 10.0 | 0.00 | 0.00 | 0.00 | 79 | 1026.4 |
| 20260831131004 | 53 | 341 | 5.0 | 11.0 | 0.00 | 0.00 | 0.00 | 79 | 1026.5 |
| 20260831130504 | 53 | 347 | 4.0 | 11.0 | 0.00 | 0.00 | 0.00 | 80 | 1026.5 |
| 20260831130010 | 53 | 49 | 3.0 | 9.0 | 0.00 | 0.00 | 0.00 | 80 | 1026.6 |
| 20260831125506 | 53 | 14 | 4.0 | 10.0 | 0.00 | 0.00 | 0.00 | 80 | 1026.7 |
| 20260831125006 | 52 | 45 | 6.0 | 10.0 | 0.00 | 0.00 | 0.00 | 81 | 1026.8 |
| 20260831124517 | 49 | 333 | 4.0 | 8.0 | 0.00 | 0.00 | 0.00 | 78 | 1027.0 |
| 20260831124003 | 49 | 344 | 2.0 | 8.0 | 0.00 | 0.00 | 0.00 | 76 | 1027.0 |
| 20260831123509 | 49 | 320 | 0.0 | 4.0 | 0.00 | 0.00 | 0.00 | 74 | 1027.0 |
| 20260831123006 | 50 | 320 | 2.0 | 4.0 | 0.00 | 0.00 | 0.00 | 74 | 1027.1 |
| 20260831122503 | 51 | 319 | 2.0 | 4.0 | 0.00 | 0.00 | 0.00 | 73 | 1027.1 |
| 20260831122005 | 51 | 343 | 2.0 | 4.0 | 0.00 | 0.00 | 0.00 | 72 | 1027.2 |
| 20260831121505 | 52 | 348 | 2.0 | 4.0 | 0.00 | 0.00 | 0.00 | 70 | 1027.3 |
| 20260831121006 | 53 | 7 | 1.0 | 4.0 | 0.00 | 0.00 | 0.00 | 70 | 1027.2 |
| 20260831120505 | 53 | 29 | 1.0 | 4.0 | 0.00 | 0.00 | 0.00 | 69 | 1027.3 |
| 20260831120039 | 53 | 71 | 1.0 | 5.0 | 0.00 | 0.00 | 0.00 | 69 | 1027.2 |
| 20260831115507 | 53 | 357 | 2.0 | 5.0 | 0.00 | 0.00 | 0.00 | 69 | 1027.3 |
| 20260831115004 | 54 | 15 | 1.0 | 5.0 | 0.00 | 0.00 | 0.00 | 68 | 1027.3 |
| 20260831114526 | 54 | 38 | 1.0 | 5.0 | 0.00 | 0.00 | 0.00 | 68 | 1027.4 |
| 20260831114006 | 54 | 22 | 1.0 | 6.0 | 0.00 | 0.00 | 0.00 | 67 | 1027.5 |
| 20260831113505 | 54 | 54 | 1.0 | 6.0 | 0.00 | 0.00 | 0.00 | 67 | 1027.5 |
| 20260831113019 | 54 | 66 | 1.0 | 5.0 | 0.00 | 0.00 | 0.00 | 67 | 1027.5 |
| 20260831112506 | 54 | 8 | 1.0 | 5.0 | 0.00 | 0.00 | 0.00 | 67 | 1027.5 |
| 20260831112014 | 54 | 37 | 2.0 | 5.0 | 0.00 | 0.00 | 0.00 | 67 | 1027.6 |
| 20260831111505 | 54 | 65 | 2.0 | 5.0 | 0.00 | 0.00 | 0.00 | 67 | 1027.6 |
| 20260831111006 | 54 | 353 | 1.0 | 4.0 | 0.00 | 0.00 | 0.00 | 67 | 1027.6 |
| 20260831110509 | 54 | 37 | 1.0 | 4.0 | 0.00 | 0.00 | 0.00 | 66 | 1027.6 |
| 20260831110004 | 54 | 22 | 1.0 | 4.0 | 0.00 | 0.00 | 0.00 | 66 | 1027.5 |
| 20260831105504 | 55 | 54 | 0.0 | 3.0 | 0.00 | 0.00 | 0.00 | 66 | 1027.5 |
| 20260831105011 | 55 | 51 | 0.0 | 3.0 | 0.00 | 0.00 | 0.00 | 65 | 1027.6 |
| 20260831104509 | 55 | 62 | 1.0 | 4.0 | 0.00 | 0.00 | 0.00 | 65 | 1027.5 |
| 20260831104007 | 56 | 54 | 1.0 | 5.0 | 0.00 | 0.00 | 0.00 | 65 | 1027.6 |
| 20260831103514 | 56 | 47 | 0.0 | 5.0 | 0.00 | 0.00 | 0.00 | 65 | 1027.6 |
| 20260831103004 | 56 | 62 | 2.0 | 4.0 | 0.00 | 0.00 | 0.00 | 65 | 1027.5 |
| 20260831102512 | 56 | 28 | 0.0 | 5.0 | 0.00 | 0.00 | 0.00 | 65 | 1027.4 |
| 20260831102009 | 56 | 38 | 2.0 | 5.0 | 0.00 | 0.00 | 0.00 | 65 | 1027.5 |
| 20260831101533 | 56 | 30 | 2.0 | 5.0 | 0.00 | 0.00 | 0.00 | 66 | 1027.6 |
| 20260831101012 | 56 | 47 | 2.0 | 5.0 | 0.00 | 0.00 | 0.00 | 66 | 1027.6 |
| 20260831100504 | 56 | 31 | 2.0 | 5.0 | 0.00 | 0.00 | 0.00 | 66 | 1027.6 |
| 20260831100025 | 56 | 39 | 0.0 | 4.0 | 0.00 | 0.00 | 0.00 | 66 | 1027.6 |
| 20260831095504 | 56 | 19 | 1.0 | 4.0 | 0.00 | 0.00 | 0.00 | 66 | 1027.7 |
| 20260831095003 | 56 | 46 | 1.0 | 4.0 | 0.00 | 0.00 | 0.00 | 66 | 1027.7 |
| 20260831094509 | 56 | 43 | 1.0 | 4.0 | 0.00 | 0.00 | 0.00 | 66 | 1027.8 |
| 20260831094007 | 56 | 50 | 1.0 | 5.0 | 0.00 | 0.00 | 0.00 | 66 | 1027.8 |
| 20260831093519 | 56 | 39 | 3.0 | 5.0 | 0.00 | 0.00 | 0.00 | 66 | 1027.8 |
| 20260831093027 | 56 | 20 | 1.0 | 5.0 | 0.00 | 0.00 | 0.00 | 66 | 1027.9 |
| 20260831092507 | 56 | 33 | 2.0 | 4.0 | 0.00 | 0.00 | 0.00 | 66 | 1028.0 |
| 20260831092011 | 57 | 23 | 0.0 | 6.0 | 0.00 | 0.00 | 0.00 | 67 | 1027.8 |
| 20260831091515 | 57 | 37 | 0.0 | 6.0 | 0.00 | 0.00 | 0.00 | 66 | 1028.0 |
| 20260831091004 | 57 | 11 | 1.0 | 4.0 | 0.00 | 0.00 | 0.00 | 66 | 1028.0 |
| 20260831090515 | 57 | 55 | 0.0 | 3.0 | 0.00 | 0.00 | 0.00 | 66 | 1028.0 |
| 20260831090012 | 57 | 58 | 0.0 | 3.0 | 0.00 | 0.00 | 0.00 | 66 | 1028.0 |
| 20260831085516 | 57 | 47 | 0.0 | 3.0 | 0.00 | 0.00 | 0.00 | 66 | 1028.0 |
| 20260831085012 | 57 | 56 | 1.0 | 3.0 | 0.00 | 0.00 | 0.00 | 67 | 1027.9 |
| 20260831084508 | 57 | 61 | 0.0 | 3.0 | 0.00 | 0.00 | 0.00 | 67 | 1028.0 |
| 20260831084003 | 58 | 61 | 1.0 | 3.0 | 0.00 | 0.00 | 0.00 | 66 | 1028.1 |
| 20260831083503 | 58 | 61 | 1.0 | 3.0 | 0.00 | 0.00 | 0.00 | 66 | 1028.1 |
| 20260831083010 | 58 | 52 | 0.0 | 2.0 | 0.00 | 0.00 | 0.00 | 65 | 1028.1 |
| 20260831082508 | 58 | 54 | 0.0 | 2.0 | 0.00 | 0.00 | 0.00 | 65 | 1028.1 |
| 20260831082013 | 58 | 54 | 0.0 | 4.0 | 0.00 | 0.00 | 0.00 | 65 | 1028.1 |
| 20260831081515 | 59 | 54 | 0.0 | 4.0 | 0.00 | 0.00 | 0.00 | 65 | 1028.1 |
| 20260831081013 | 59 | 77 | 0.0 | 2.0 | 0.00 | 0.00 | 0.00 | 65 | 1028.1 |
| 20260831080504 | 59 | 77 | 0.0 | 1.0 | 0.00 | 0.00 | 0.00 | 64 | 1028.1 |
| 20260831080029 | 60 | 77 | 0.0 | 3.0 | 0.00 | 0.00 | 0.00 | 64 | 1028.1 |
| 20260831075510 | 60 | 77 | 1.0 | 4.0 | 0.00 | 0.00 | 0.00 | 63 | 1028.1 |
| 20260831075013 | 61 | 88 | 1.0 | 4.0 | 0.00 | 0.00 | 0.00 | 63 | 1028.1 |
| 20260831074530 | 61 | 95 | 2.0 | 6.0 | 0.00 | 0.00 | 0.00 | 63 | 1028.0 |
| 20260831074010 | 61 | 91 | 2.0 | 6.0 | 0.00 | 0.00 | 0.00 | 62 | 1028.0 |
| 20260831073515 | 61 | 95 | 3.0 | 6.0 | 0.00 | 0.00 | 0.00 | 62 | 1028.0 |
| 20260831073018 | 61 | 105 | 3.0 | 6.0 | 0.00 | 0.00 | 0.00 | 61 | 1028.0 |
| 20260831072504 | 62 | 102 | 3.0 | 5.0 | 0.00 | 0.00 | 0.00 | 61 | 1028.0 |
| 20260831072010 | 62 | 115 | 2.0 | 4.0 | 0.00 | 0.00 | 0.00 | 61 | 1028.0 |
| 20260831071526 | 62 | 115 | 2.0 | 6.0 | 0.00 | 0.00 | 0.00 | 60 | 1028.0 |
| 20260831071016 | 62 | 104 | 3.0 | 6.0 | 0.00 | 0.00 | 0.00 | 59 | 1028.0 |
| 20260831070511 | 62 | 104 | 2.0 | 4.0 | 0.00 | 0.00 | 0.00 | 62 | 1028.1 |